Regional Weather Roundup
Issued by NWS Cleveland, OH

Home | Current Version | Previous Version | Graphics & Text | Print | Product List | Glossary On
Versions: 1 2 3 4 5 6 7 8 9 10 11 12 13 14 15 16 17 18 19 20 21 22 23 24 25 26 27 28 29 30 31 32 33 34 35 36 37 38 39 40 41 42 43 44 45 46 47 48 49 50
000
ASUS41 KCLE 300300
RWRCLE
OHIO REGIONAL WEATHER ROUNDUP
NATIONAL WEATHER SERVICE WILMINGTON, OH
1100 PM EDT MON JUN 29 2015

NOTE: "FAIR" INDICATES FEW OR NO CLOUDS BELOW 12,000 FEET WITH NO
SIGNIFICANT WEATHER AND/OR OBSTRUCTIONS TO VISIBILITY.

OHZ001>008-015>018-024>027-034-035-043-044-300400-
   NORTHWEST OHIO

CITY           SKY/WX    TMP DP  RH WIND       PRES   REMARKS
DEFIANCE       CLOUDY    63  60  90 CALM      29.84S
FINDLAY        CLOUDY    63  61  93 CALM      29.82S
TOLEDO EXPRESS CLOUDY    62  58  86 CALM      29.84R
TOLEDO EXEC    CLOUDY    64  58  80 E5        29.85R
LIMA           CLOUDY    63  61  93 CALM      29.83R
$$

OHZ009>014-019>023-028>033-038-089-300400-
   NORTHEAST OHIO

CITY           SKY/WX    TMP DP  RH WIND       PRES   REMARKS
CLE-HOPKINS    CLOUDY    64  57  78 SE8       29.86S
CLE-LAKEFRONT  CLOUDY    66  57  72 SE13      29.83S
CUY CO. ARPT   LGT RAIN  64  59  82 SE12      29.86S
LORAIN-ELYRIA  CLOUDY    63  58  83 S6        29.85R
ASHTABULA      CLOUDY    65  59  81 E6        29.88S
AKRON-CANTON   CLOUDY    63  59  87 SE8       29.86R
WOOSTER        CLOUDY    62  60  93 SE6       29.85S
MANSFIELD      CLOUDY    61  61 100 SE6       29.85R
YOUNGSTOWN     LGT RAIN  61  57  87 E10       29.87S
$$

OHZ042-051>053-060>062-070>072-077>081-300400-
  SOUTHWEST OHIO

CITY           SKY/WX    TMP DP  RH WIND       PRES   REMARKS
CINC-COVINGTON PTCLDY    69  65  86 SW3       29.84R
CINC-LUNKEN    PTCLDY    66  65  96 NE3       29.84R
HAMILTON       PTCLDY    69  68  96 CALM      29.84R FOG
DAYTON         NOT AVBL
WRIGHT-PAT AFB NOT AVBL
DAYTON GENERAL CLEAR     65  64  97 CALM      29.84R
WILMINGTON     CLEAR     65  63  93 SW3       29.84R
$$

OHZ036-037-039>041-045>050-054>059-063>069-073>076-082>088-300400-
  CENTRAL AND SOUTHEAST OHIO

CITY           SKY/WX    TMP DP  RH WIND       PRES   REMARKS
COLUMBUS       CLOUDY    65  62  90 CALM      29.83R
OSU AIRPORT    MOCLDY    64  63  96 CALM      29.83R FOG
BOLTON FIELD   NOT AVBL
RICKENBACK AFB NOT AVBL
NEWARK         CLOUDY    65  62  90 CALM      29.83R
MARION         CLOUDY    63  61  93 S6        29.83S
LANCASTER      FOG       62  60  93 CALM      29.83R VSB 3/4
ZANESVILLE     MOCLDY    63  60  90 SE3       29.84R
NEW PHILLY     MOCLDY    62  60  93 SE6       29.86R
$$



USA.gov is the U.S. government's official web portal to all federal, state and local government web resources and services.